Weather History for KDYT - May, 2014

Change the Weather History Date:

Saturday, May 10, 2014

  Actual Average Record
Temperature  
Mean Temperature 50 °F -  
Max Temperature 60 °F 53 °F 86 °F (2007)
Min Temperature 39 °F 37 °F 19 °F (1966)
Degree Days  
Heating Degree Days 16    
Moisture  
Dew Point 33 °F    
Average Humidity 62    
Maximum Humidity 93    
Minimum Humidity 33    
Precipitation  
Precipitation 0.00 in - - ()
Sea Level Pressure  
Sea Level Pressure 29.83 in    
Wind  
Wind Speed 0 mph (SW)    
Max Wind Speed 7 mph    
Max Gust Speed -    
Visibility 10 miles    
Events Rain    
Averages and records for this station are not official NWS values.
T = Trace of Precipitation, MM = Missing Value Source: NWS Daily Summary

Daily Weather History Graph

Daily Weather History Graph

Search for Another Location

Airport or City:

Trip Planner

Search our weather history database for the weather conditions in past years. The results will help you decide how hot, cold, wet, or windy it might be!

Date:

Astronomy

May. 10, 2014 Rise Set
Actual Time 5:40 AM CDT 8:29 PM CDT
Civil Twilight 5:05 AM CDT 9:04 PM CDT
Nautical Twilight 4:20 AM CDT 9:49 PM CDT
Astronomical Twilight 3:27 AM CDT 10:43 PM CDT
Moon 4:10 PM CDT (5/10) 3:30 AM CDT (5/10)
Length of Visible Light 15h 59m
Length of Day
14h 49m
Waxing Gibbous, 82% of the Moon is Illuminated
May 10
Waxing Gibbous
May 14
Full
May 21
Last Quarter
May 28
New
Jun 5
First Quarter

Hourly Weather History & Observations

Time (CDT) Temp. Windchill Dew Point Humidity Pressure Visibility Wind Dir Wind Speed Gust Speed Precip Events Conditions
12:13 AM 44.6 °F - 39.2 °F 81% 29.75 in 10.0 mi Calm Calm - N/A   Clear
12:33 AM 42.8 °F - 39.2 °F 87% 29.74 in 10.0 mi Calm Calm - N/A   Clear
12:54 AM 42.8 °F - 39.2 °F 87% 29.74 in 10.0 mi Calm Calm - N/A   Clear
1:13 AM 42.8 °F - 39.2 °F 87% 29.74 in 10.0 mi Calm Calm - N/A   Clear
1:33 AM 42.8 °F - 39.2 °F 87% 29.74 in 10.0 mi Calm Calm - N/A   Clear
1:54 AM 42.8 °F - 39.2 °F 87% 29.74 in 10.0 mi Calm Calm - N/A   Clear
2:13 AM 41.0 °F - 39.2 °F 93% 29.74 in 10.0 mi Calm Calm - N/A   Clear
2:33 AM 41.0 °F 39.0 °F 37.4 °F 87% 29.75 in 10.0 mi SW 3.5 mph - N/A   Clear
2:54 AM 41.0 °F - 37.4 °F 87% 29.75 in 10.0 mi Calm Calm - N/A   Clear
3:13 AM 39.2 °F - 37.4 °F 93% 29.76 in 10.0 mi Calm Calm - N/A   Clear
3:33 AM 39.2 °F 34.2 °F 37.4 °F 93% 29.77 in 10.0 mi SSW 6.9 mph - N/A   Clear
3:54 AM 39.2 °F - 37.4 °F 93% 29.78 in 10.0 mi Calm Calm - N/A   Clear
4:13 AM 39.2 °F 37.0 °F 37.4 °F 93% 29.79 in 10.0 mi SSW 3.5 mph - N/A   Clear
4:33 AM 41.0 °F - 35.6 °F 81% 29.79 in 10.0 mi Calm Calm - N/A   Clear
4:54 AM 41.0 °F - 35.6 °F 81% 29.79 in 10.0 mi Calm Calm - N/A   Clear
5:13 AM 41.0 °F - 35.6 °F 81% 29.80 in 10.0 mi Calm Calm - N/A   Clear
5:33 AM 41.0 °F - 35.6 °F 81% 29.81 in 10.0 mi Calm Calm - N/A   Clear
5:54 AM 41.0 °F - 35.6 °F 81% 29.82 in 10.0 mi Calm Calm - N/A   Clear
6:13 AM 41.0 °F - 35.6 °F 81% 29.83 in 10.0 mi Calm Calm - N/A   Clear
6:33 AM 41.0 °F - 35.6 °F 81% 29.85 in 10.0 mi Calm Calm - N/A   Clear
6:54 AM 41.0 °F - 35.6 °F 81% 29.85 in 10.0 mi Calm Calm - N/A   Clear
7:13 AM 41.0 °F - 35.6 °F 81% 29.86 in 10.0 mi Calm Calm - N/A   Clear
7:33 AM 42.8 °F - 37.4 °F 81% 29.86 in 10.0 mi Calm Calm - N/A   Clear
7:54 AM 44.6 °F - 37.4 °F 76% 29.87 in 10.0 mi Calm Calm - N/A   Clear
8:13 AM 46.4 °F - 37.4 °F 71% 29.87 in 10.0 mi Calm Calm - N/A   Clear
8:33 AM 46.4 °F - 39.2 °F 76% 29.87 in 10.0 mi Calm Calm - N/A   Clear
8:54 AM 48.2 °F - 39.2 °F 71% 29.88 in 10.0 mi Calm Calm - N/A   Clear
9:13 AM 51.8 °F - 39.2 °F 62% 29.88 in 10.0 mi Calm Calm - N/A   Clear
9:33 AM 53.6 °F - 41.0 °F 62% 29.88 in 10.0 mi Calm Calm - N/A   Clear
9:54 AM 53.6 °F - 39.2 °F 58% 29.88 in 10.0 mi Calm Calm - N/A   Clear
10:13 AM 55.4 °F - 39.2 °F 54% 29.87 in 10.0 mi Calm Calm - N/A   Clear
10:33 AM 57.2 °F - 39.2 °F 51% 29.87 in 10.0 mi Calm Calm - N/A   Clear
10:54 AM 57.2 °F - 39.2 °F 51% 29.87 in 10.0 mi Calm Calm - N/A   Clear
11:13 AM 60.8 °F - 37.4 °F 42% 29.87 in 10.0 mi Calm Calm - N/A   Clear
11:33 AM 57.2 °F - 37.4 °F 48% 29.87 in 10.0 mi Calm Calm - N/A   Clear
11:54 AM 60.8 °F - 37.4 °F 42% 29.87 in 10.0 mi Calm Calm - N/A   Clear
12:13 PM 57.2 °F - 35.6 °F 44% 29.86 in 10.0 mi Calm Calm - N/A   Scattered Clouds
12:33 PM 60.8 °F - 33.8 °F 36% 29.86 in 10.0 mi Calm Calm - N/A   Clear
12:54 PM 57.2 °F - 33.8 °F 41% 29.85 in 10.0 mi Calm Calm - N/A   Clear
1:13 PM 57.2 °F - 32.0 °F 38% 29.85 in 10.0 mi Calm Calm - N/A   Clear
1:34 PM 57.2 °F - 28.4 °F 33% 29.85 in 10.0 mi Calm Calm - N/A   Clear
1:53 PM 55.4 °F - 30.2 °F 38% 29.85 in 10.0 mi Calm Calm - N/A   Clear
2:14 PM 51.8 °F - 28.4 °F 41% 29.84 in 10.0 mi Calm Calm - N/A   Clear
2:33 PM 55.4 °F - 26.6 °F 33% 29.84 in 10.0 mi Calm Calm - N/A   Clear
2:53 PM 51.8 °F - 30.2 °F 44% 29.84 in 10.0 mi Calm Calm - N/A   Clear
3:14 PM 44.6 °F - 32.0 °F 61% 29.83 in 10.0 mi Calm Calm - N/A   Clear
3:33 PM 46.4 °F - 30.2 °F 53% 29.82 in 10.0 mi Calm Calm - N/A   Clear
3:53 PM 48.2 °F - 30.2 °F 50% 29.82 in 10.0 mi Calm Calm - N/A   Clear
4:14 PM 48.2 °F - 30.2 °F 50% 29.82 in 10.0 mi Calm Calm - N/A   Clear
4:33 PM 48.2 °F - 30.2 °F 50% 29.82 in 10.0 mi Calm Calm - N/A   Clear
4:53 PM 50.0 °F - 30.2 °F 47% 29.82 in 10.0 mi Calm Calm - N/A   Clear
5:14 PM 48.2 °F - 28.4 °F 46% 29.82 in 10.0 mi Calm Calm - N/A   Clear
5:33 PM 48.2 °F - 28.4 °F 46% 29.82 in 10.0 mi Calm Calm - N/A   Clear
5:53 PM 48.2 °F - 28.4 °F 46% 29.82 in 10.0 mi Calm Calm - N/A   Clear
6:13 PM 48.2 °F - 26.6 °F 43% 29.82 in 10.0 mi Calm Calm - N/A   Clear
6:33 PM 48.2 °F - 24.8 °F 40% 29.82 in 10.0 mi Calm Calm - N/A   Clear
6:54 PM 48.2 °F - 28.4 °F 46% 29.82 in 10.0 mi Calm Calm - N/A   Clear
7:13 PM 44.6 °F - 30.2 °F 57% 29.83 in 10.0 mi Calm Calm - N/A   Clear
7:34 PM 42.8 °F - 30.2 °F 61% 29.83 in 10.0 mi Calm Calm - N/A   Clear
7:53 PM 42.8 °F - 28.4 °F 57% 29.82 in 10.0 mi Calm Calm - N/A   Clear
8:13 PM 42.8 °F - 28.4 °F 57% 29.83 in 10.0 mi Calm Calm - N/A   Clear
8:34 PM 44.6 °F - 26.6 °F 49% 29.83 in 10.0 mi Calm Calm - N/A   Clear
8:53 PM 42.8 °F - 28.4 °F 57% 29.84 in 10.0 mi Calm Calm - N/A   Clear
9:13 PM 44.6 °F - 26.6 °F 49% 29.85 in 10.0 mi Calm Calm - N/A   Clear
9:34 PM 46.4 °F - 26.6 °F 46% 29.86 in 10.0 mi Calm Calm - N/A   Clear
9:53 PM 44.6 °F - 26.6 °F 49% 29.86 in 10.0 mi Calm Calm - N/A   Clear
10:13 PM 46.4 °F - 26.6 °F 46% 29.86 in 10.0 mi Calm Calm - N/A   Scattered Clouds
10:34 PM 46.4 °F - 26.6 °F 46% 29.87 in 10.0 mi Calm Calm - N/A   Mostly Cloudy
10:53 PM 44.6 °F - 28.4 °F 53% 29.86 in 10.0 mi Calm Calm - N/A   Mostly Cloudy
11:13 PM 44.6 °F - 28.4 °F 53% 29.87 in 10.0 mi Calm Calm - N/A   Overcast
11:34 PM 44.6 °F - 30.2 °F 57% 29.88 in 10.0 mi Calm Calm - N/A   Overcast
11:53 PM 44.6 °F - 32.0 °F 61% 29.90 in 10.0 mi Calm Calm - N/A Rain Rain